STARLINK-11196, 60408

Orbit data source: Space-Track

STARLINK-11196, 60408 is a payload satellite owned by SpaceX/Seattle (US) in LEO that was launched on Sat, 10 Aug 2024 UTC via an FALCON 9 launch vehicle from the Air Force Eastern Test Range (AFETR). Payload-class satellites include a variety of spacecraft equipped with specific instruments for various scientific and technological missions. These include communications satellites like Starlink; space stations such as the ISS; scientific satellites like the Hubble; Earth observation satellites from companies like Planet Labs, Umbra, and HawkEye 360; GPS; miniature CubeSats for education and research; and military/defense satellites.

Loading next visibility...
Identifier
60408, 2024-141L
Orbit
LEO
Last TLE update
15 hours ago
Origin
Manufacturer
SpaceX/Seattle
Mission
Operational Commercial Communications
Bus & Motor
STARLINK V2M, Unknown motor
Mass
730 kg wet, ~700 kg dry
Launch date (UTC)
2024-08-10 (11 months ago)
Launch vehicle
FALCON 9
Launch site
Air Force Eastern Test Range (AFETR)
Object type
Payload
Rocket body
Debris
Shape & HBR
Box + 2 Pan, 29 m
Radar Cross Section
36.964 m², Large (>1 m²)

Expand to show TLE details & history

TLE from 15 hours ago
0 STARLINK-11196
1 60408U 24141L   25186.53631618 -.00000608  00000-0 -15131-6 0  9998
2 60408  53.1592 224.7083 0001546  85.6482 274.4713 15.69701955 52924
Epoch: 2025-07-05T12:52Z
TLE epoch observation values (Epoch: 2025-07-05T12:52:17.717Z)
Latitude
-0.00001°
Longitude
107.86152°
Altitude
360.584 km
Speed
7.694 km/s
True Right ascension
14h 58m 49s
True Declination
0° 00' 00"
Sunlit
Object was in full shadow at epoch
Visualization orbit readout
Latitude
-52.78552°
Longitude
25.97997°
Altitude
379.1 km
Speed
7.681 km/s
Apparent Right ascension
06h 18m 53s
Apparent Declination
-55° 07' 60"
Sunlit
Object is in daylight
Visualization observer readout
Local Sidereal Time
15:44:58
Azimuth
226.114° WSW
Elevation
-60.426°
Doppler factor
1
Orbital elements
Apogee altitude
361.052 km
Perigee altitude
358.969 km
Semi-major axis
6,738.148 km
Eccentricity
0.00015
Inclination
53.1592°
RAAN
224.7083°
Arg. of periapsis
85.6482°
True anomaly
Unknown
Mean anomaly
274.4713°
Eccentric anomaly
Unknown
Mean motion
3.92403 °/min
Orbital period
91.74 mins
BSTAR
-1.5131e-7
Loading maneuver chart data...
Loading SW <> Apogee altitude chart data...
Loading historical data...
Loading historical data...
Loading historical data...
Loading historical data...
Loading historical data...
Loading historical data...
Loading historical data...

STARLINK-11196 Visibility forecast

Observer location: undefined°, undefined°

Span
Click to sort rows by Start time (UTC) header in descending order
Start Az.
Max El. time (UTC)
Max El. Az.
Max El.
End time (UTC)
End Az.
4 mins2025-07-06 05:53:54.698Z264.787° W2025-07-06 05:55:54.698Z340.241° N30.938°2025-07-06 05:57:54.698Z32.064° NE
4 mins2025-07-06 12:18:54.698Z294.69° NW2025-07-06 12:19:54.698Z264.657° W38.353°2025-07-06 12:22:54.698Z143.065° SSE
|